Time,TemperatureF,DewpointF,PressureIn,WindDirection,WindDirectionDegrees,WindSpeedMPH,WindSpeedGustMPH,Humidity,HourlyPrecipIn,Conditions,Clouds,dailyrainin,SolarRadiationWatts/m^2,SoftwareType,DateUTC
2013-05-11 00:22:00,61.0,54.0,-100.00,SW,234,4.0,10.0,79,0.00,,,0.08,1.000000,,2013-05-11 05:22:00,
2013-05-11 00:32:00,61.0,54.0,-100.00,SW,234,4.0,10.0,79,0.00,,,0.08,1.000000,,2013-05-11 05:32:00,
2013-05-11 00:42:00,61.0,54.0,-100.00,SW,234,4.0,10.0,79,0.00,,,0.08,1.000000,,2013-05-11 05:42:00,
2013-05-11 00:52:00,61.0,54.0,-100.00,SW,234,4.0,10.0,79,0.00,,,0.08,1.000000,,2013-05-11 05:52:00,
2013-05-11 01:12:00,58.0,53.0,-100.00,WSW,243,2.0,6.0,84,0.00,,,0.08,1.000000,,2013-05-11 06:12:00,
2013-05-11 01:21:00,58.0,53.0,-100.00,WSW,243,2.0,6.0,84,0.00,,,0.08,1.000000,,2013-05-11 06:21:00,
2013-05-11 01:32:00,58.0,53.0,-100.00,WSW,243,2.0,6.0,84,0.00,,,0.08,1.000000,,2013-05-11 06:32:00,
2013-05-11 01:42:00,58.0,53.0,-100.00,WSW,243,2.0,6.0,84,0.00,,,0.08,1.000000,,2013-05-11 06:42:00,
2013-05-11 01:52:00,58.0,53.0,-100.00,WSW,243,2.0,6.0,84,0.00,,,0.08,1.000000,,2013-05-11 06:52:00,
2013-05-11 02:12:00,55.0,53.0,-100.00,SSW,194,1.0,4.0,92,0.00,,,0.08,1.000000,,2013-05-11 07:12:00,
2013-05-11 02:21:00,55.0,53.0,-100.00,SSW,194,1.0,4.0,92,0.00,,,0.08,1.000000,,2013-05-11 07:21:00,
2013-05-11 02:32:00,55.0,53.0,-100.00,SSW,194,1.0,4.0,92,0.00,,,0.08,1.000000,,2013-05-11 07:32:00,
2013-05-11 02:42:00,55.0,53.0,-100.00,SSW,194,1.0,4.0,92,0.00,,,0.08,1.000000,,2013-05-11 07:42:00,
2013-05-11 02:52:00,55.0,53.0,-100.00,SSW,194,1.0,4.0,92,0.00,,,0.08,1.000000,,2013-05-11 07:52:00,
2013-05-11 03:21:00,55.0,53.0,-100.00,SSW,200,4.0,7.0,92,0.00,,,0.08,1.000000,,2013-05-11 08:21:00,
2013-05-11 03:32:00,55.0,53.0,-100.00,SSW,200,4.0,7.0,92,0.00,,,0.08,1.000000,,2013-05-11 08:32:00,
2013-05-11 03:42:00,55.0,53.0,-100.00,SSW,200,4.0,7.0,92,0.00,,,0.08,1.000000,,2013-05-11 08:42:00,
2013-05-11 03:52:00,55.0,53.0,-100.00,SSW,200,4.0,7.0,92,0.00,,,0.08,1.000000,,2013-05-11 08:52:00,
2013-05-11 04:21:00,55.0,52.0,-100.00,SSW,196,4.0,9.0,91,0.00,,,0.01,1.000000,,2013-05-11 09:21:00,
2013-05-11 04:32:00,55.0,52.0,-100.00,SSW,196,4.0,9.0,91,0.00,,,0.01,1.000000,,2013-05-11 09:32:00,
2013-05-11 04:42:00,55.0,52.0,-100.00,SSW,196,4.0,9.0,91,0.00,,,0.01,1.000000,,2013-05-11 09:42:00,
2013-05-11 04:52:00,55.0,52.0,-100.00,SSW,196,4.0,9.0,91,0.00,,,0.01,1.000000,,2013-05-11 09:52:00,
2013-05-11 05:22:00,52.0,51.0,-100.00,SE,126,0.0,7.0,97,0.00,,,0.00,1.000000,,2013-05-11 10:22:00,
2013-05-11 05:33:00,52.0,51.0,-100.00,SE,126,0.0,7.0,97,0.00,,,0.00,1.000000,,2013-05-11 10:33:00,
2013-05-11 05:42:00,52.0,51.0,-100.00,SE,126,0.0,7.0,97,0.00,,,0.00,1.000000,,2013-05-11 10:42:00,
2013-05-11 05:52:00,52.0,51.0,-100.00,SE,126,0.0,7.0,97,0.00,,,0.00,1.000000,,2013-05-11 10:52:00,
2013-05-11 06:12:00,53.0,52.0,-100.00,SE,138,0.0,3.0,98,0.00,,,0.00,1.000000,,2013-05-11 11:12:00,
2013-05-11 06:22:00,53.0,52.0,-100.00,SE,138,0.0,3.0,98,0.00,,,0.00,1.000000,,2013-05-11 11:22:00,
2013-05-11 06:32:00,53.0,52.0,-100.00,SE,138,0.0,3.0,98,0.00,,,0.00,1.000000,,2013-05-11 11:32:00,
2013-05-11 06:42:00,53.0,52.0,-100.00,SE,138,0.0,3.0,98,0.00,,,0.00,1.000000,,2013-05-11 11:42:00,
2013-05-11 06:51:00,53.0,52.0,-100.00,SE,138,0.0,3.0,98,0.00,,,0.00,1.000000,,2013-05-11 11:51:00,
2013-05-11 07:22:00,56.0,53.0,-100.00,SSW,192,4.0,6.0,91,0.00,,,-99.99,21.000000,,2013-05-11 12:22:00,
2013-05-11 07:32:00,56.0,53.0,-100.00,SSW,192,4.0,6.0,91,0.00,,,-99.99,21.000000,,2013-05-11 12:32:00,
2013-05-11 07:42:00,56.0,53.0,-100.00,SSW,192,4.0,6.0,91,0.00,,,-99.99,21.000000,,2013-05-11 12:42:00,
2013-05-11 07:51:00,56.0,53.0,-100.00,SSW,192,4.0,6.0,91,0.00,,,-99.99,21.000000,,2013-05-11 12:51:00,
2013-05-11 08:21:00,57.0,54.0,-100.00,SSW,201,3.0,7.0,90,0.00,,,-99.99,118.000000,,2013-05-11 13:21:00,
2013-05-11 08:32:00,57.0,54.0,-100.00,SSW,201,3.0,7.0,90,0.00,,,-99.99,118.000000,,2013-05-11 13:32:00,
2013-05-11 08:42:00,57.0,54.0,-100.00,SSW,201,3.0,7.0,90,0.00,,,-99.99,118.000000,,2013-05-11 13:42:00,
2013-05-11 08:52:00,57.0,54.0,-100.00,SSW,201,3.0,7.0,90,0.00,,,-99.99,118.000000,,2013-05-11 13:52:00,
2013-05-11 09:21:00,59.0,54.0,-100.00,SSW,200,4.0,7.0,85,0.00,,,0.00,247.000000,,2013-05-11 14:21:00,
2013-05-11 09:32:00,59.0,54.0,-100.00,SSW,200,4.0,7.0,85,0.00,,,0.00,247.000000,,2013-05-11 14:32:00,
2013-05-11 09:42:00,59.0,54.0,-100.00,SSW,200,4.0,7.0,85,0.00,,,0.00,247.000000,,2013-05-11 14:42:00,
2013-05-11 09:51:00,59.0,54.0,-100.00,SSW,200,4.0,7.0,85,0.00,,,0.00,247.000000,,2013-05-11 14:51:00,
2013-05-11 09:53:00,63.0,53.0,-100.00,SW,221,8.0,13.0,69,0.00,,,0.00,633.000000,,2013-05-11 14:53:00,
2013-05-11 10:11:00,63.0,53.0,-100.00,SW,221,8.0,13.0,69,0.00,,,0.00,633.000000,,2013-05-11 15:11:00,
2013-05-11 10:21:00,63.0,53.0,-100.00,SW,221,8.0,13.0,69,0.00,,,0.00,633.000000,,2013-05-11 15:21:00,
2013-05-11 10:32:00,63.0,53.0,-100.00,SW,221,8.0,13.0,69,0.00,,,0.00,633.000000,,2013-05-11 15:32:00,
2013-05-11 10:43:00,63.0,53.0,-100.00,SW,221,8.0,13.0,69,0.00,,,0.00,633.000000,,2013-05-11 15:43:00,
2013-05-11 11:23:00,67.0,52.0,-100.00,SW,231,8.0,14.0,58,0.00,,,0.00,848.000000,,2013-05-11 16:23:00,
2013-05-11 11:33:00,67.0,52.0,-100.00,SW,231,8.0,14.0,58,0.00,,,0.00,848.000000,,2013-05-11 16:33:00,
2013-05-11 11:42:00,67.0,52.0,-100.00,SW,231,8.0,14.0,58,0.00,,,0.00,848.000000,,2013-05-11 16:42:00,
2013-05-11 11:52:00,67.0,52.0,-100.00,SW,231,8.0,14.0,58,0.00,,,0.00,848.000000,,2013-05-11 16:52:00,
2013-05-11 12:12:00,68.0,48.0,-100.00,SW,222,11.0,18.0,49,0.00,,,0.00,980.000000,,2013-05-11 17:12:00,
2013-05-11 12:22:00,68.0,48.0,-100.00,SW,222,11.0,18.0,49,0.00,,,0.00,980.000000,,2013-05-11 17:22:00,
2013-05-11 12:32:00,68.0,48.0,-100.00,SW,222,11.0,18.0,49,0.00,,,0.00,980.000000,,2013-05-11 17:32:00,
2013-05-11 12:42:00,68.0,48.0,-100.00,SW,222,11.0,18.0,49,0.00,,,0.00,980.000000,,2013-05-11 17:42:00,
2013-05-11 12:52:00,68.0,48.0,-100.00,SW,222,11.0,18.0,49,0.00,,,0.00,980.000000,,2013-05-11 17:52:00,
2013-05-11 13:21:00,72.0,49.0,-100.00,WSW,237,8.0,14.0,45,0.00,,,0.00,976.000000,,2013-05-11 18:21:00,
2013-05-11 13:32:00,72.0,49.0,-100.00,WSW,237,8.0,14.0,45,0.00,,,0.00,976.000000,,2013-05-11 18:32:00,
2013-05-11 13:42:00,72.0,49.0,-100.00,WSW,237,8.0,14.0,45,0.00,,,0.00,976.000000,,2013-05-11 18:42:00,
2013-05-11 13:51:00,72.0,49.0,-100.00,WSW,237,8.0,14.0,45,0.00,,,0.00,976.000000,,2013-05-11 18:51:00,
2013-05-11 14:11:00,74.0,48.0,-100.00,SSW,212,10.0,19.0,40,0.00,,,0.00,1048.000000,,2013-05-11 19:11:00,
2013-05-11 14:21:00,74.0,48.0,-100.00,SSW,212,10.0,19.0,40,0.00,,,0.00,1048.000000,,2013-05-11 19:21:00,
2013-05-11 14:32:00,74.0,48.0,-100.00,SSW,212,10.0,19.0,40,0.00,,,0.00,1048.000000,,2013-05-11 19:32:00,
2013-05-11 14:42:00,74.0,48.0,-100.00,SSW,212,10.0,19.0,40,0.00,,,0.00,1048.000000,,2013-05-11 19:42:00,
2013-05-11 14:52:00,74.0,48.0,-100.00,SSW,212,10.0,19.0,40,0.00,,,0.00,1048.000000,,2013-05-11 19:52:00,
2013-05-11 15:22:00,74.0,48.0,-100.00,SSW,203,9.0,16.0,40,0.00,,,0.00,776.000000,,2013-05-11 20:22:00,
2013-05-11 15:32:00,74.0,48.0,-100.00,SSW,203,9.0,16.0,40,0.00,,,0.00,776.000000,,2013-05-11 20:32:00,
2013-05-11 15:42:00,74.0,48.0,-100.00,SSW,203,9.0,16.0,40,0.00,,,0.00,776.000000,,2013-05-11 20:42:00,
2013-05-11 15:52:00,74.0,48.0,-100.00,SSW,203,9.0,16.0,40,0.00,,,0.00,776.000000,,2013-05-11 20:52:00,
2013-05-11 16:11:00,76.0,49.0,-100.00,South,178,7.0,19.0,39,0.00,,,0.00,874.000000,,2013-05-11 21:11:00,
2013-05-11 16:21:00,76.0,49.0,-100.00,South,178,7.0,19.0,39,0.00,,,0.00,874.000000,,2013-05-11 21:21:00,
2013-05-11 16:33:00,76.0,49.0,-100.00,South,178,7.0,19.0,39,0.00,,,0.00,874.000000,,2013-05-11 21:33:00,
2013-05-11 16:43:00,76.0,49.0,-100.00,South,178,7.0,19.0,39,0.00,,,0.00,874.000000,,2013-05-11 21:43:00,
2013-05-11 16:52:00,76.0,49.0,-100.00,South,178,7.0,19.0,39,0.00,,,0.00,874.000000,,2013-05-11 21:52:00,
2013-05-11 17:23:00,76.0,50.0,-100.00,SSE,150,8.0,15.0,40,0.00,,,0.00,621.000000,,2013-05-11 22:23:00,
2013-05-11 17:33:00,76.0,50.0,-100.00,SSE,150,8.0,15.0,40,0.00,,,0.00,621.000000,,2013-05-11 22:33:00,
2013-05-11 17:42:00,76.0,50.0,-100.00,SSE,150,8.0,15.0,40,0.00,,,0.00,621.000000,,2013-05-11 22:42:00,
2013-05-11 17:52:00,76.0,50.0,-100.00,SSE,150,8.0,15.0,40,0.00,,,0.00,621.000000,,2013-05-11 22:52:00,
2013-05-11 18:22:00,71.0,51.0,-100.00,South,169,6.0,13.0,49,0.00,,,0.00,207.000000,,2013-05-11 23:22:00,
2013-05-11 18:32:00,71.0,51.0,-100.00,South,169,6.0,13.0,49,0.00,,,0.00,207.000000,,2013-05-11 23:32:00,
2013-05-11 18:42:00,71.0,51.0,-100.00,South,169,6.0,13.0,49,0.00,,,0.00,207.000000,,2013-05-11 23:42:00,
2013-05-11 18:52:00,71.0,51.0,-100.00,South,169,6.0,13.0,49,0.00,,,0.00,207.000000,,2013-05-11 23:52:00,
2013-05-11 19:21:00,73.0,47.0,-100.00,SW,218,10.0,18.0,40,0.00,,,0.00,241.000000,,2013-05-12 00:21:00,
2013-05-11 19:32:00,73.0,47.0,-100.00,SW,218,10.0,18.0,40,0.00,,,0.00,241.000000,,2013-05-12 00:32:00,
2013-05-11 19:42:00,73.0,47.0,-100.00,SW,218,10.0,18.0,40,0.00,,,0.00,241.000000,,2013-05-12 00:42:00,
2013-05-11 19:52:00,73.0,47.0,-100.00,SW,218,10.0,18.0,40,0.00,,,0.00,241.000000,,2013-05-12 00:52:00,
2013-05-11 20:11:00,68.0,35.0,-100.00,SW,222,10.0,25.0,30,0.00,,,0.00,58.000000,,2013-05-12 01:11:00,
2013-05-11 20:21:00,68.0,35.0,-100.00,SW,222,10.0,25.0,30,0.00,,,0.00,58.000000,,2013-05-12 01:21:00,
2013-05-11 20:32:00,68.0,35.0,-100.00,SW,222,10.0,25.0,30,0.00,,,0.00,58.000000,,2013-05-12 01:32:00,
2013-05-11 20:42:00,68.0,35.0,-100.00,SW,222,10.0,25.0,30,0.00,,,0.00,58.000000,,2013-05-12 01:42:00,
2013-05-11 20:52:00,68.0,35.0,-100.00,SW,222,10.0,25.0,30,0.00,,,0.00,58.000000,,2013-05-12 01:52:00,
2013-05-11 21:11:00,64.0,32.0,-100.00,SW,225,10.0,17.0,30,0.00,,,0.00,3.000000,,2013-05-12 02:11:00,
2013-05-11 21:22:00,64.0,32.0,-100.00,SW,225,10.0,17.0,30,0.00,,,0.00,3.000000,,2013-05-12 02:22:00,
2013-05-11 21:32:00,64.0,32.0,-100.00,SW,225,10.0,17.0,30,0.00,,,0.00,3.000000,,2013-05-12 02:32:00,
2013-05-11 21:42:00,64.0,32.0,-100.00,SW,225,10.0,17.0,30,0.00,,,0.00,3.000000,,2013-05-12 02:42:00,
2013-05-11 21:52:00,64.0,32.0,-100.00,SW,225,10.0,17.0,30,0.00,,,0.00,3.000000,,2013-05-12 02:52:00,
2013-05-11 21:53:00,61.0,34.0,-100.00,SW,219,7.0,16.0,36,0.00,,,0.00,1.000000,,2013-05-12 02:53:00,
2013-05-11 22:22:00,61.0,34.0,-100.00,SW,219,7.0,16.0,36,0.00,,,0.00,1.000000,,2013-05-12 03:22:00,
2013-05-11 22:33:00,61.0,34.0,-100.00,SW,219,7.0,16.0,36,0.00,,,0.00,1.000000,,2013-05-12 03:33:00,
2013-05-11 22:43:00,61.0,34.0,-100.00,SW,219,7.0,16.0,36,0.00,,,0.00,1.000000,,2013-05-12 03:43:00,
2013-05-11 23:22:00,59.0,35.0,-100.00,SW,226,7.0,14.0,40,0.00,,,0.00,1.000000,,2013-05-12 04:22:00,
2013-05-11 23:33:00,59.0,35.0,-100.00,SW,226,7.0,14.0,40,0.00,,,0.00,1.000000,,2013-05-12 04:33:00,
2013-05-11 23:43:00,59.0,35.0,-100.00,SW,226,7.0,14.0,40,0.00,,,0.00,1.000000,,2013-05-12 04:43:00,
2013-05-11 23:52:00,59.0,35.0,-100.00,SW,226,7.0,14.0,40,0.00,,,0.00,1.000000,,2013-05-12 04:52:00,